Date,TemperatureHighF,TemperatureAvgF,TemperatureLowF,DewpointHighF,DewpointAvgF,DewpointLowF,HumidityHigh,HumidityAvg,HumidityLow,PressureMaxIn,PressureMinIn,WindSpeedMaxMPH,WindSpeedAvgMPH,GustSpeedMaxMPH,PrecipitationSumIn
2013-1-1,78,64,51,59,47,39,92,61,28,30.23,30.05,0,0,1,0.01
2013-1-2,82,67,55,63,54,45,94,68,31,30.09,29.99,0,0,1,0.00
2013-1-3,73,64,57,71,61,54,99,90,62,30.19,30.04,0,0,1,0.05
2013-1-4,60,58,55,58,56,53,98,94,86,30.29,30.15,0,0,1,0.06
2013-1-5,78,64,54,58,50,41,98,64,32,30.32,30.19,0,0,1,0.00
2013-1-6,80,69,62,71,60,54,99,77,47,30.22,30.07,0,0,1,0.08
2013-1-7,68,62,57,66,54,43,95,77,45,30.24,30.13,0,0,1,0.02
2013-1-8,85,71,60,68,59,43,99,73,28,30.24,30.14,0,0,1,0.00
2013-1-9,85,75,68,70,63,51,99,71,34,30.31,30.19,0,0,2,0.01
2013-1-10,85,74,66,72,58,38,99,67,24,30.32,30.22,0,0,1,0.01
2013-1-11,82,71,61,68,60,51,98,71,39,30.28,30.16,0,0,2,0.00
2013-1-12,84,72,62,68,57,43,99,67,28,30.20,30.10,0,0,1,0.01
2013-1-13,84,72,62,64,57,42,94,65,28,30.18,30.08,0,0,1,0.00
2013-1-14,81,71,62,68,57,44,99,67,31,30.20,30.12,0,0,1,0.01
2013-1-15,83,71,60,69,55,39,99,66,25,30.16,30.06,0,0,0,0.00
2013-1-16,84,70,62,66,52,31,96,62,20,30.13,30.02,0,0,0,0.00
2013-1-17,77,62,53,70,52,33,99,73,45,30.14,30.01,0,0,0,0.21
2013-1-18,65,52,39,55,37,24,83,58,42,30.31,30.13,0,0,0,0.02
2013-1-19,76,64,53,53,46,39,73,55,30,30.29,30.14,0,0,0,0.00
2013-1-20,78,65,59,58,52,45,96,68,34,30.19,30.06,0,0,0,0.00
2013-1-21,73,65,60,58,50,44,73,60,39,30.11,30.01,0,0,0,0.02
2013-1-22,67,57,46,48,23,-4,66,37,10,30.29,30.08,11,1,19,0.00
2013-1-23,72,55,41,32,15,-6,63,33,10,30.38,30.27,11,2,20,0.00
2013-1-24,75,57,41,41,28,3,78,46,10,30.35,30.23,9,2,14,0.00
2013-1-25,77,60,46,59,34,6,93,53,10,30.33,30.18,10,1,14,0.00
2013-1-26,79,61,46,52,36,13,85,51,12,30.29,30.17,8,1,12,0.00
2013-1-27,80,64,48,61,42,9,93,57,10,30.33,30.22,9,2,14,0.00
2013-1-28,79,69,61,64,56,46,93,68,38,30.34,30.23,11,2,20,0.19
2013-1-29,84,72,64,71,60,42,99,73,28,30.26,30.11,11,4,17,0.00
2013-1-30,84,74,67,62,54,38,85,58,23,30.13,29.92,17,6,25,0.00
2013-1-31,70,58,44,62,28,-8,90,45,10,30.25,29.92,17,4,27,0.06
2013-2-1,72,52,36,25,8,-9,58,29,10,30.37,30.24,12,2,17,0.00
2013-2-2,74,56,38,32,16,-3,68,34,10,30.32,30.15,8,2,11,0.00
2013-2-3,72,57,46,34,19,0,63,31,10,30.20,30.08,15,3,24,0.00
2013-2-4,73,55,40,46,19,-6,80,40,10,30.17,30.04,8,1,11,0.00
2013-2-5,79,59,40,42,22,2,67,36,10,30.12,30.00,10,1,15,0.00
2013-2-6,79,67,54,53,38,19,63,42,14,30.13,30.03,7,1,14,0.00
2013-2-7,82,71,63,57,46,18,78,50,14,30.09,29.88,16,5,21,0.00
2013-2-8,82,69,56,60,40,7,80,49,10,30.10,29.89,14,6,22,0.00
2013-2-9,78,63,50,53,36,7,90,50,10,30.22,30.08,8,2,14,0.01
2013-2-10,79,65,57,48,40,22,61,47,17,30.25,30.16,14,3,21,0.00
2013-2-11,83,71,59,58,44,17,82,47,12,30.23,30.08,13,3,21,0.00
2013-2-12,78,71,61,66,58,53,92,66,46,30.12,29.97,11,2,15,0.00
2013-2-13,85,73,62,67,58,40,93,65,25,30.00,29.85,20,7,30,0.32
2013-2-14,64,62,59,58,54,49,93,75,62,30.05,29.93,5,2,8,0.35
2013-2-15,71,58,54,58,48,30,95,78,27,30.05,29.96,8,2,12,0.04
2013-2-16,68,57,48,45,26,-1,83,42,10,30.00,29.94,20,8,29,0.04
2013-2-17,56,53,37,55,21,-17,34,23,11,30.36,30.00,12,9,19,0.04
2013-2-18,69,50,36,36,17,-1,50,28,10,30.37,30.22,13,2,17,0.00
2013-2-19,79,63,47,49,29,6,76,40,10,30.24,30.08,17,3,26,0.00
2013-2-20,79,66,57,57,44,29,88,51,21,30.16,30.02,9,2,13,0.05
2013-2-21,82,70,57,55,40,18,68,43,14,30.13,30.00,9,2,11,0.00
2013-2-22,87,74,63,64,49,13,89,51,10,30.10,29.99,11,2,16,0.00
2013-2-23,99,76,69,68,61,18,94,67,17,30.11,29.91,17,5,26,0.36
2013-2-24,69,68,68,66,66,65,93,93,90,29.97,29.95,7,2,10,0.00
2013-2-25,87,76,68,66,63,58,93,70,42,29.95,29.82,9,4,15,0.04
2013-2-26,76,72,66,71,65,60,91,81,68,29.88,29.77,19,4,27,0.08
2013-2-27,78,66,54,60,54,47,96,69,39,30.02,29.88,12,4,17,0.08
2013-2-28,75,61,48,53,47,39,94,66,34,30.05,29.93,17,4,27,0.00
2013-3-1,65,55,46,46,38,29,83,57,30,30.06,29.96,15,5,22,0.00
2013-3-2,59,50,42,39,32,27,75,53,34,30.10,30.01,23,6,30,0.25
2013-3-3,54,44,36,36,29,26,78,57,40,30.21,30.04,17,5,27,0.00
2013-3-4,70,50,31,34,28,18,89,51,20,30.28,30.14,10,2,15,0.00
2013-3-5,77,60,44,57,42,30,85,56,24,30.22,30.06,17,4,25,0.00
2013-3-6,66,58,46,61,38,23,90,54,24,30.19,29.98,23,8,32,0.06
2013-3-7,72,52,37,38,32,29,75,52,26,30.27,30.16,11,3,16,0.00
2013-3-8,79,58,38,45,36,26,88,55,18,30.27,30.14,9,2,14,0.00
2013-3-9,78,62,44,49,44,40,89,59,29,30.27,30.16,10,2,14,0.00
2013-3-10,80,67,55,53,50,48,85,60,38,30.21,30.09,14,4,21,0.00
2013-3-11,76,73,57,57,55,53,89,55,51,30.14,30.05,13,6,21,0.00
2013-3-12,76,68,64,66,62,55,95,80,51,30.06,29.91,14,5,21,0.38
2013-3-13,77,61,47,62,39,25,92,55,20,30.21,29.95,14,5,21,0.00
2013-3-14,71,56,43,44,31,20,84,47,19,30.31,30.19,13,3,18,0.00
2013-3-15,76,56,36,43,35,25,87,55,24,30.33,30.17,10,1,16,0.00
2013-3-16,80,61,43,48,42,37,90,58,26,30.24,30.08,11,2,18,0.00
2013-3-17,79,64,49,58,51,46,95,68,41,30.19,30.03,11,2,17,0.00
2013-3-18,78,69,64,65,59,56,85,72,58,30.09,29.91,12,2,21,0.00
2013-3-19,88,73,62,67,62,58,98,72,42,30.04,29.92,10,2,14,0.00
2013-3-20,76,67,60,66,60,56,95,80,54,30.01,29.83,14,3,21,0.02
2013-3-21,73,59,47,57,38,21,97,56,20,30.03,29.91,13,4,17,0.01
2013-3-22,79,60,42,65,48,34,97,70,33,30.06,29.93,12,2,17,0.35
2013-3-23,86,73,63,72,66,62,99,82,52,30.03,29.82,19,4,30,0.01
2013-3-24,82,75,69,72,70,66,93,84,66,29.88,29.68,22,8,37,0.17
2013-3-25,72,64,51,66,43,20,94,55,20,30.08,29.77,19,7,26,0.00
2013-3-26,58,51,42,41,29,21,68,46,28,30.28,30.07,24,7,31,0.05
2013-3-27,66,49,35,35,30,24,80,54,25,30.35,30.23,14,4,19,0.01
2013-3-28,74,54,35,41,32,24,90,53,20,30.34,30.21,11,2,15,0.00
2013-3-29,76,59,41,47,36,27,86,51,20,30.37,30.22,10,1,14,0.00
2013-3-30,80,63,46,52,45,39,86,58,33,30.30,30.14,11,2,17,0.00
2013-3-31,83,69,55,58,52,48,84,59,34,30.21,30.04,13,3,21,0.00
2013-4-1,84,72,63,66,61,58,92,70,44,30.07,29.98,20,4,26,0.00
2013-4-2,86,72,58,64,58,51,99,68,34,30.13,30.03,8,2,14,0.01
2013-4-3,85,72,63,68,62,57,99,75,43,30.13,29.97,16,3,23,0.18
2013-4-4,73,69,67,69,66,63,99,91,74,30.07,29.90,14,4,21,0.39
2013-4-5,77,68,60,68,61,53,98,79,48,30.03,29.85,15,5,23,0.02
2013-4-6,80,66,53,57,54,51,96,72,42,30.16,30.02,11,4,16,0.00
2013-4-7,85,70,57,63,57,53,98,69,38,30.19,30.09,11,2,15,0.00
2013-4-8,68,68,67,63,62,60,86,82,77,30.16,30.15,2,1,4,0.00
2013-4-9,72,68,59,67,63,56,97,85,61,30.18,30.11,5,1,9,0.00
2013-4-10,90,74,59,70,62,58,97,71,39,30.16,29.99,14,3,22,0.00
2013-4-11,89,78,73,73,70,66,92,78,50,30.04,29.86,14,5,21,0.15
2013-4-12,83,77,73,74,72,69,97,85,67,29.95,29.83,19,5,29,0.01
2013-4-13,86,77,68,72,68,62,99,77,51,30.03,29.91,9,2,12,0.00
2013-4-14,89,76,67,73,67,60,87,75,55,30.05,29.87,24,4,30,0.02
2013-4-15,93,78,65,70,64,61,91,67,40,30.12,29.96,8,2,12,0.00
2013-4-16,90,78,68,73,68,65,96,74,49,30.19,30.07,10,3,24,0.00
2013-4-17,87,75,64,71,64,60,99,74,44,30.19,30.06,13,3,20,0.00
2013-4-18,90,78,67,72,67,63,99,73,44,30.10,29.98,11,3,19,0.31
2013-4-19,89,79,72,74,70,63,99,78,51,30.06,29.96,16,4,24,0.19
2013-4-20,74,67,60,73,64,56,99,89,83,30.20,30.00,14,3,22,0.01
2013-4-21,80,69,60,72,65,56,99,89,67,30.19,30.05,8,3,14,0.19
2013-4-22,83,71,66,70,67,63,99,88,59,30.13,30.02,11,4,21,0.08
2013-4-23,86,73,66,66,62,56,94,73,44,30.15,30.07,8,3,14,0.00
2013-4-24,87,74,57,64,59,54,99,67,36,30.19,30.10,11,2,18,0.01
2013-4-25,90,76,61,67,62,57,99,68,37,30.25,30.14,7,1,10,0.00
2013-4-26,90,75,62,67,63,58,97,69,38,30.28,30.18,9,1,14,0.00
2013-4-27,86,75,65,70,65,61,99,74,48,30.27,30.13,11,3,18,0.00
2013-4-28,86,75,64,67,62,57,99,69,40,30.18,30.01,14,4,21,0.00
2013-4-29,86,76,66,68,64,61,95,70,47,30.07,29.93,10,3,16,0.00
2013-4-30,92,76,68,73,68,63,99,82,43,30.06,29.94,12,2,22,0.83
2013-5-1,72,71,69,72,71,69,99,99,99,30.04,29.97,6,1,9,0.01
2013-5-2,79,72,69,72,71,69,99,96,79,30.04,29.85,8,1,11,3.09
2013-5-3,86,72,66,72,69,66,99,91,56,29.88,29.75,14,3,22,0.80
2013-5-4,83,73,68,70,68,64,99,84,57,29.85,29.70,16,5,21,0.00
2013-5-5,79,69,62,68,54,43,99,65,33,29.98,29.80,17,6,27,0.00
2013-5-6,78,68,58,62,56,50,97,70,43,30.05,29.94,15,4,24,0.00
2013-5-7,79,67,55,60,57,53,99,73,48,30.10,30.01,14,4,21,0.00
2013-5-8,83,70,58,64,59,56,99,72,45,30.18,30.07,12,3,18,0.00
2013-5-9,88,73,58,66,60,57,99,70,39,30.20,30.10,8,1,12,0.00
2013-5-10,92,78,63,74,66,60,99,71,38,30.18,30.02,12,3,17,0.00
2013-5-11,89,77,68,74,69,66,99,80,54,30.10,30.01,14,3,22,0.00
2013-5-12,89,77,69,75,68,64,99,78,52,30.09,29.98,16,4,21,0.00
2013-5-13,86,73,62,68,60,47,99,70,33,30.17,30.04,12,3,17,0.00
2013-5-14,86,70,52,59,51,43,93,58,26,30.25,30.15,11,2,14,0.00
2013-5-15,87,73,56,63,58,50,96,64,34,30.26,30.12,11,2,14,0.00
2013-5-16,89,76,65,66,61,54,91,64,37,30.18,30.04,9,3,15,0.00
2013-5-17,91,78,63,69,64,57,95,66,38,30.14,30.06,11,2,17,0.00
2013-5-18,96,81,68,74,68,60,99,71,35,30.15,30.03,11,2,17,0.04
2013-5-19,94,80,72,74,71,63,98,77,41,30.13,30.01,12,3,20,0.02
2013-5-20,93,77,68,74,70,66,99,83,48,30.12,30.01,11,2,18,0.60
2013-5-21,84,74,67,75,70,67,99,91,65,30.08,29.99,15,2,25,0.02
2013-5-22,90,76,69,76,72,68,99,89,51,30.02,29.93,12,2,17,0.15
2013-5-23,92,74,68,76,70,68,99,89,52,30.05,29.96,8,1,11,0.01
2013-5-24,95,81,69,77,67,55,99,71,30,30.12,30.01,14,3,20,0.00
2013-5-25,90,78,69,70,65,59,96,67,44,30.23,30.11,10,3,18,0.00
2013-5-26,86,74,60,64,60,48,96,66,31,30.26,30.15,10,2,16,0.00
2013-5-27,88,75,62,67,63,60,99,72,43,30.23,30.11,10,3,17,0.00
2013-5-28,88,77,67,75,70,66,99,82,59,30.19,30.08,15,4,24,0.00
2013-5-29,85,76,71,75,73,71,99,91,68,30.18,30.09,16,4,29,0.17
2013-5-30,86,78,72,77,73,68,99,86,65,30.15,30.07,15,4,25,0.24
2013-5-31,88,79,72,74,72,70,97,80,62,30.14,30.05,15,5,22,0.00
2013-6-1,90,79,72,78,74,72,99,88,62,30.11,29.98,13,3,21,0.06
2013-6-2,94,80,74,77,75,72,99,85,54,30.05,29.92,14,2,21,0.00
2013-6-3,88,79,73,79,75,73,99,89,68,30.05,29.94,12,2,21,0.04
2013-6-4,86,78,72,76,74,70,99,89,62,30.07,29.98,11,2,21,0.12
2013-6-5,83,76,72,79,74,72,99,94,74,30.06,29.95,10,3,16,0.01
2013-6-6,81,76,73,79,75,73,99,97,86,29.96,29.70,19,7,30,2.68
2013-6-7,88,79,72,78,74,71,99,85,59,30.00,29.82,13,4,19,0.00
2013-6-8,89,77,72,79,74,72,99,93,69,30.15,29.99,8,2,12,0.85
2013-6-9,92,79,72,79,75,71,99,89,56,30.15,30.05,11,3,17,0.11
2013-6-10,94,80,73,80,76,69,99,87,56,30.14,30.03,16,2,27,0.08
2013-6-11,93,78,73,81,75,72,99,92,62,30.13,30.03,13,2,19,0.08
2013-6-12,97,82,70,79,74,70,99,79,49,30.13,30.03,10,2,17,0.01
2013-6-13,95,82,72,79,75,72,99,82,52,30.09,29.94,9,2,15,0.00
2013-6-14,90,82,74,78,74,68,99,79,53,29.99,29.90,13,4,20,0.00
2013-6-15,91,81,75,81,77,75,99,89,65,30.11,29.96,13,2,17,0.01
2013-6-16,95,83,73,79,76,72,99,84,51,30.13,30.03,20,3,29,1.82
2013-6-17,97,82,74,82,77,74,99,86,52,30.14,30.00,17,2,27,0.24
2013-6-18,95,82,74,80,76,73,99,84,52,30.12,30.00,12,2,17,0.02
2013-6-19,92,82,74,79,76,71,99,83,55,30.09,30.01,14,2,18,0.00
2013-6-20,95,81,72,78,74,70,99,83,50,30.14,30.04,19,2,28,0.24
2013-6-21,93,78,71,80,74,70,99,90,57,30.17,30.08,15,1,22,0.11
2013-6-22,93,80,72,80,74,68,99,84,49,30.16,30.08,10,2,19,0.00
2013-6-23,94,80,73,79,76,70,99,89,51,30.19,30.10,15,2,24,0.02
2013-6-24,93,82,75,79,75,68,99,81,50,30.23,30.11,13,3,19,0.00
2013-6-25,94,83,74,80,74,69,99,78,49,30.19,30.06,9,2,15,0.00
2013-6-26,96,80,72,80,76,72,99,88,52,30.12,30.04,16,2,28,0.24
2013-6-27,93,81,71,79,74,71,99,83,54,30.11,29.98,8,2,13,0.01
2013-6-28,92,80,72,79,76,70,99,90,61,30.02,29.90,13,3,21,0.37
2013-6-29,89,79,76,81,77,73,99,94,70,29.93,29.85,20,3,31,0.18
2013-6-30,88,77,74,81,76,73,99,96,72,29.93,29.86,19,3,30,0.24
2013-7-1,82,76,72,79,75,72,99,98,87,30.06,29.90,10,3,17,0.45
2013-7-2,85,76,73,80,75,73,99,96,77,30.14,30.01,14,2,24,0.11
2013-7-3,90,77,73,81,76,73,99,95,67,30.17,30.09,16,3,30,0.22
2013-7-4,89,78,72,80,75,72,99,93,70,30.19,30.11,12,3,24,0.17
2013-7-5,90,78,72,80,76,72,99,94,67,30.20,30.10,15,3,24,0.37
2013-7-6,91,82,74,80,76,73,99,84,58,30.17,30.07,11,4,18,0.01
2013-7-7,91,82,75,80,76,72,99,84,57,30.18,30.08,12,3,18,0.00
2013-7-8,93,83,74,81,76,70,99,81,53,30.20,30.11,10,2,15,0.00
2013-7-9,94,82,72,80,75,69,99,81,48,30.21,30.10,12,2,21,0.00
2013-7-10,94,81,71,79,74,71,99,82,51,30.14,30.00,11,2,15,0.00
2013-7-11,91,80,74,78,75,73,99,86,58,30.09,29.96,14,2,21,0.00
2013-7-12,86,78,74,80,76,74,99,95,78,30.01,29.93,11,1,14,0.72
2013-7-13,90,78,72,78,75,72,99,93,63,30.04,29.96,17,2,26,0.02
2013-7-14,90,77,73,80,75,73,99,94,68,30.13,30.01,11,2,17,0.12
2013-7-15,92,79,71,79,75,70,99,90,57,30.16,30.06,8,2,16,0.00
2013-7-16,90,78,73,79,75,73,99,93,60,30.21,30.13,25,3,40,0.61
2013-7-17,90,78,73,81,76,73,99,92,63,30.20,30.11,20,2,33,0.19
2013-7-18,88,77,72,80,74,71,99,92,69,30.17,30.09,10,2,16,0.27
2013-7-19,90,77,72,79,74,72,99,91,65,30.18,30.07,11,2,19,0.98
2013-7-20,73,73,73,73,73,72,99,99,99,30.16,30.13,2,1,4,0.00
2013-7-21,93,82,75,80,78,75,99,88,64,30.18,30.07,11,2,15,0.35
2013-7-22,92,80,74,82,77,74,99,91,62,30.17,30.10,13,2,18,0.01
2013-7-23,87,79,75,82,76,74,99,93,70,30.14,30.01,11,3,19,0.01
2013-7-24,88,80,75,82,78,75,99,94,74,30.05,29.93,21,4,30,0.18
2013-7-25,87,80,74,82,78,74,99,95,74,30.05,29.91,15,3,23,0.45
2013-7-26,95,82,75,82,77,74,99,86,54,30.06,29.98,14,2,18,0.01
2013-7-27,94,83,74,82,77,72,99,83,56,30.04,29.94,10,2,14,0.01
2013-7-28,91,80,74,81,76,73,99,89,60,30.11,29.98,10,1,14,0.00
2013-7-29,96,82,72,80,75,72,99,83,50,30.20,30.06,14,1,22,0.01
2013-7-30,96,83,73,82,77,71,99,83,50,30.22,30.11,10,2,16,0.00
2013-7-31,95,81,74,83,76,72,99,87,52,30.18,30.04,14,2,21,0.15
2013-8-1,94,81,74,81,76,71,99,86,52,30.11,29.98,11,2,15,0.02
2013-8-2,96,81,73,81,76,73,99,87,52,30.08,29.98,7,2,12,0.00
2013-8-3,93,80,75,83,77,74,99,92,62,30.14,30.05,17,2,24,0.00
2013-8-4,90,80,75,84,79,75,99,96,71,30.14,30.03,18,2,29,0.00
2013-8-5,95,84,76,83,79,76,99,87,62,30.07,29.96,12,2,17,0.00
2013-8-6,96,83,75,83,78,74,99,88,58,30.03,29.93,14,1,20,0.00
2013-8-7,96,83,77,83,78,76,99,87,58,30.02,29.94,10,2,16,0.00
2013-8-8,94,83,77,82,78,75,99,89,57,30.09,29.98,11,2,16,0.00
2013-8-9,94,81,75,82,78,75,99,91,62,30.11,30.01,17,3,31,0.01
2013-8-10,94,83,74,82,76,70,99,82,50,30.17,30.08,11,2,15,0.00
2013-8-11,95,85,75,82,77,69,99,81,49,30.20,30.09,8,2,12,0.00
2013-8-12,96,84,74,82,77,72,99,81,55,30.17,30.04,8,2,13,0.00
2013-8-13,98,85,75,81,77,70,99,80,46,30.10,29.96,8,1,13,0.00
2013-8-14,95,82,76,83,78,75,99,90,61,30.07,29.94,14,2,20,0.00
2013-8-15,94,83,75,80,78,74,99,85,59,30.09,29.97,11,2,15,0.00
2013-8-16,93,84,77,81,78,75,99,86,59,30.11,30.00,9,2,14,0.64
2013-8-17,94,81,74,84,78,74,99,92,64,30.12,30.03,15,2,23,0.61
2013-8-18,92,80,75,82,78,74,99,94,65,30.15,30.05,17,2,30,0.97
2013-8-19,96,81,74,83,78,73,99,91,58,30.14,30.01,13,2,21,0.11
2013-8-20,95,81,74,82,77,74,99,89,57,30.14,30.03,14,2,21,0.01
2013-8-21,93,82,75,84,78,75,99,90,63,30.15,30.06,13,2,23,0.08
2013-8-22,92,79,76,83,77,76,99,96,65,30.14,30.03,7,2,13,0.08
2013-8-23,95,81,75,83,78,45,99,90,58,30.07,29.98,14,2,24,0.00
2013-8-24,94,80,74,83,77,74,99,92,64,30.16,30.04,13,2,27,0.26
2013-8-25,91,80,74,82,77,74,99,91,67,30.20,30.11,10,2,16,0.00
2013-8-26,91,79,74,81,77,74,99,93,66,30.18,30.05,17,2,29,0.84
2013-8-27,90,81,72,81,74,70,99,82,57,30.11,30.02,11,2,17,0.00
2013-8-28,94,81,70,78,73,68,99,81,46,30.11,30.01,9,1,15,0.00
2013-8-29,96,82,72,78,74,70,99,79,47,30.09,29.97,7,1,10,0.00
2013-8-30,94,82,74,80,77,74,99,87,57,30.03,29.94,7,2,11,0.00
2013-8-31,91,84,74,82,77,74,99,82,64,30.02,29.93,12,3,17,0.01
2013-9-1,95,81,72,80,76,72,99,87,56,30.04,29.93,11,2,17,0.00
2013-9-2,93,80,72,81,76,72,99,90,60,30.06,29.97,10,2,17,0.00
2013-9-3,92,81,73,82,77,73,99,89,62,30.07,29.97,9,2,14,0.00
2013-9-4,95,80,72,81,76,72,99,90,58,30.13,30.02,16,1,24,0.20
2013-9-5,97,81,72,83,76,70,99,87,53,30.14,30.03,14,2,24,0.09
2013-9-6,94,78,72,84,75,71,99,91,55,30.10,29.97,15,2,32,0.18
2013-9-7,94,78,70,80,74,70,99,90,56,30.07,29.96,11,2,15,0.00
2013-9-8,95,81,71,82,74,71,99,83,51,30.03,29.91,9,2,16,0.00
2013-9-9,95,82,72,80,74,67,99,81,45,30.08,29.98,8,2,14,0.00
2013-9-10,92,82,74,79,74,66,99,81,49,30.14,30.03,10,2,16,0.00
2013-9-11,93,82,74,80,74,70,99,79,50,30.12,30.03,11,3,17,0.00
2013-9-12,93,78,72,81,75,72,99,92,60,30.07,29.94,11,1,19,0.47
2013-9-13,94,80,71,80,75,70,99,86,55,29.96,29.84,12,1,19,0.00
2013-9-14,96,83,73,80,76,73,99,83,52,30.03,29.88,10,1,16,0.00
2013-9-15,92,78,73,82,76,73,99,93,65,30.12,30.01,19,2,36,0.04
2013-9-16,93,79,71,81,75,71,99,91,56,30.12,30.02,14,2,24,0.01
2013-9-17,91,79,71,81,76,71,99,90,63,30.11,29.99,12,2,19,0.04
2013-9-18,88,79,73,81,76,73,99,92,73,30.09,30.01,11,3,20,0.01
2013-9-19,92,80,72,81,75,71,99,86,57,30.09,30.00,11,3,17,0.00
2013-9-20,91,79,69,76,72,69,99,80,53,30.08,29.94,8,2,14,0.00
2013-9-21,92,79,68,79,72,68,99,82,53,30.00,29.81,8,1,11,0.00
2013-9-22,90,79,74,80,77,73,99,95,68,29.91,29.81,16,2,24,0.94
2013-9-23,86,76,73,82,76,73,99,98,82,30.01,29.88,11,2,17,2.04
2013-9-24,85,77,74,80,76,74,99,97,80,30.01,29.89,12,3,18,0.15
2013-9-25,82,76,72,78,75,72,99,97,84,29.92,29.83,16,4,21,0.18
2013-9-26,91,81,74,83,75,64,99,86,46,29.92,29.83,14,4,21,0.14
2013-9-27,86,76,70,77,73,70,99,91,67,30.01,29.91,11,3,17,0.00
2013-9-28,88,76,70,81,74,70,99,92,70,30.05,29.96,8,2,15,0.14
2013-9-29,92,78,69,77,72,69,99,84,52,30.04,29.94,7,2,12,0.00
2013-9-30,91,78,68,78,72,68,99,84,54,30.06,29.96,7,1,14,0.00
2013-10-1,93,80,71,78,74,71,99,85,54,30.11,30.01,11,2,16,0.00
2013-10-2,91,79,70,76,73,70,99,84,58,30.11,30.03,8,2,13,0.00
2013-10-3,91,80,70,76,73,70,99,83,55,30.13,30.03,8,2,14,0.00
2013-10-4,94,80,72,79,74,70,99,84,49,30.14,30.03,7,1,10,0.00
2013-10-5,91,79,69,79,73,69,99,84,58,30.11,29.99,9,2,14,0.00
2013-10-6,92,80,71,80,74,70,99,84,53,30.04,29.90,8,2,12,0.00
2013-10-7,86,77,73,82,76,73,99,97,84,29.92,29.78,16,3,23,0.37
2013-10-8,88,79,74,82,77,74,99,94,74,30.00,29.83,16,3,22,0.11
2013-10-9,82,74,66,74,71,66,99,93,72,30.09,29.98,9,4,17,0.00
2013-10-10,89,75,64,74,68,63,99,83,52,30.11,30.01,7,2,14,0.01
2013-10-11,89,77,64,74,67,64,99,76,49,30.09,29.99,9,1,16,0.00
2013-10-12,88,75,63,72,66,62,99,78,46,30.10,30.01,9,2,14,0.00
2013-10-13,90,75,63,73,66,60,99,78,43,30.13,30.03,7,1,11,0.00
2013-10-14,88,74,64,74,68,64,99,83,49,30.10,29.97,10,2,16,0.00
2013-10-15,84,71,66,75,70,66,99,96,72,30.06,29.94,7,2,11,0.00
2013-10-16,89,76,69,76,71,68,99,86,54,30.03,29.93,5,1,8,0.00
2013-10-17,92,78,67,79,72,67,99,85,53,30.03,29.93,4,0,8,0.00
2013-10-18,92,80,70,79,73,69,99,83,52,30.04,29.93,8,1,11,0.00
2013-10-19,92,79,70,79,75,70,99,88,56,30.01,29.91,7,1,11,0.01
2013-10-20,90,80,74,82,76,73,99,89,65,30.02,29.91,7,1,11,0.01
2013-10-21,92,80,70,81,75,70,99,88,60,30.05,29.95,8,1,12,0.00
2013-10-22,90,78,72,80,75,71,99,90,65,29.99,29.86,14,3,21,0.11
2013-10-23,83,74,65,73,66,56,99,81,47,30.07,29.85,11,3,17,0.07
2013-10-24,72,64,58,61,58,53,99,80,62,30.22,30.05,8,2,12,0.00
2013-10-25,83,67,55,64,57,54,99,76,42,30.29,30.18,9,2,13,0.00
2013-10-26,82,66,54,63,57,54,99,77,42,30.26,30.13,8,2,11,0.00
2013-10-27,83,66,54,65,57,54,99,78,43,30.19,30.09,10,1,14,0.00
2013-10-28,87,69,54,67,61,53,99,78,47,30.24,30.14,7,1,11,0.00
2013-10-29,88,72,61,73,66,61,99,83,52,30.27,30.17,9,2,16,0.01
2013-10-30,68,65,64,67,65,63,99,99,99,30.25,30.21,4,1,5,0.00
2013-10-31,86,74,64,74,69,63,99,84,54,30.17,30.02,9,2,15,0.00
2013-11-1,89,77,70,77,72,67,99,85,54,30.06,29.91,13,3,21,0.00
2013-11-2,75,70,62,75,69,62,99,99,96,30.03,29.86,14,2,21,0.76
2013-11-3,78,65,55,64,56,48,99,77,38,30.16,30.01,11,3,17,0.01
2013-11-4,80,68,56,69,62,55,99,84,56,30.22,30.14,14,4,24,0.00
2013-11-5,84,72,64,73,69,64,99,90,61,30.20,30.10,12,4,21,0.00
2013-11-6,86,74,66,74,69,66,99,87,59,30.16,30.06,9,1,14,0.00
2013-11-7,84,71,65,75,69,64,99,92,64,30.11,30.01,8,1,13,0.00
2013-11-8,81,69,62,68,65,61,99,88,62,30.17,30.04,11,4,19,0.00
2013-11-9,82,71,61,70,65,61,99,84,62,30.22,30.13,11,3,20,0.00
2013-11-10,87,72,62,72,66,62,99,85,53,30.22,30.11,9,1,14,0.00
2013-11-11,85,72,63,72,67,62,99,86,57,30.21,30.10,8,2,12,0.00
2013-11-12,81,71,63,73,68,62,99,90,68,30.16,30.04,8,1,11,0.00
2013-11-13,68,61,52,66,54,50,96,78,63,30.36,30.12,16,6,28,0.00
2013-11-14,77,62,49,60,55,48,99,83,52,30.35,30.22,14,3,21,0.00
2013-11-15,77,67,57,70,65,57,99,93,71,30.24,30.12,7,1,11,0.01
2013-11-16,75,70,68,74,70,68,99,99,98,30.18,30.08,8,2,13,0.28
2013-11-17,87,76,68,76,73,68,99,91,66,30.14,30.03,11,2,16,0.00
2013-11-18,86,75,67,77,72,67,99,92,69,30.08,29.96,8,1,13,0.01
2013-11-19,83,72,64,73,68,63,99,90,63,30.03,29.93,8,2,14,0.00
2013-11-20,85,71,62,75,69,61,99,95,71,30.15,30.01,8,2,15,0.26
2013-11-21,82,73,70,78,72,69,99,97,75,30.23,30.13,11,2,19,0.06
2013-11-22,83,73,66,76,70,65,99,91,71,30.24,30.14,10,2,17,0.00
2013-11-23,86,72,62,74,67,62,99,86,55,30.16,30.04,7,1,11,0.00
2013-11-24,71,64,59,67,61,55,99,90,79,30.27,30.06,11,4,21,0.00
2013-11-25,74,67,58,67,61,56,99,81,64,30.28,30.11,14,4,23,0.00
2013-11-26,82,74,67,77,72,67,99,94,78,30.11,29.80,14,5,21,0.18
2013-11-27,74,62,42,74,59,39,99,91,73,30.26,29.76,21,8,30,0.14
2013-11-28,68,50,35,54,45,35,99,86,60,30.39,30.25,11,4,14,0.00
2013-11-29,74,60,49,62,56,49,99,87,63,30.40,30.30,11,4,20,0.00
2013-11-30,79,64,53,67,61,53,99,90,66,30.35,30.21,11,3,19,0.00
2013-12-1,75,66,61,69,64,60,99,94,78,30.23,30.01,8,2,14,0.00
2013-12-2,72,64,60,66,60,57,99,88,65,30.02,29.88,10,2,14,0.00
2013-12-3,81,67,55,67,62,55,99,86,60,30.04,29.93,8,1,12,0.00
2013-12-4,84,71,62,73,67,61,99,90,61,30.13,30.01,7,1,11,0.00
2013-12-5,85,72,62,74,68,62,99,87,62,30.22,30.12,10,2,13,0.00
2013-12-6,87,75,64,76,70,64,99,88,61,30.22,30.12,9,2,16,0.00
2013-12-7,87,74,64,75,68,63,99,85,53,30.28,30.18,7,1,10,0.00
2013-12-8,84,73,62,76,69,62,99,89,64,30.27,30.14,10,2,16,0.01
2013-12-9,84,73,64,76,70,64,99,91,64,30.24,30.13,8,2,14,0.00
2013-12-10,86,74,61,76,68,61,99,85,49,30.22,30.11,11,3,17,0.00
2013-12-11,87,72,59,71,66,58,99,85,58,30.29,30.18,9,2,15,0.00
2013-12-12,73,62,50,65,53,33,99,77,41,30.36,30.23,13,3,18,0.00
2013-12-13,77,61,46,60,54,43,99,81,56,30.32,30.16,11,2,17,0.00
2013-12-14,83,72,60,74,68,60,99,91,71,30.16,29.99,11,3,21,0.01
2013-12-15,73,68,58,73,66,58,99,93,76,30.16,29.93,14,4,25,0.48
2013-12-16,68,56,45,58,50,43,99,83,54,30.28,30.15,9,3,12,0.00
2013-12-17,76,56,42,58,50,42,99,82,52,30.30,30.18,7,1,11,0.00
2013-12-18,74,56,44,50,47,43,99,76,43,30.33,30.24,11,2,14,0.00
2013-12-19,78,59,40,61,52,39,99,83,45,30.32,30.21,8,1,14,0.00
2013-12-20,83,68,54,68,63,54,99,85,60,30.25,30.14,12,2,19,0.00
2013-12-21,85,74,65,75,70,64,99,89,68,30.19,30.07,13,4,21,0.00
2013-12-22,86,76,69,76,72,69,99,89,69,30.19,30.10,11,3,21,0.00
2013-12-23,87,75,66,78,72,65,99,91,61,30.22,30.11,12,2,17,0.00
2013-12-24,73,64,47,73,55,37,99,78,35,30.30,30.14,15,5,21,0.06
2013-12-25,77,59,43,62,52,42,99,82,56,30.29,30.18,10,3,17,0.00
2013-12-26,79,65,57,66,61,57,99,88,60,30.27,30.13,8,2,14,0.00
2013-12-27,71,64,58,70,64,58,99,99,94,30.29,30.19,8,3,13,0.01
2013-12-28,79,71,64,74,69,64,99,94,78,30.26,30.05,14,4,19,0.00
2013-12-29,78,71,61,77,71,61,99,99,92,30.06,29.92,12,4,22,0.18
2013-12-30,69,61,58,65,60,57,99,98,85,30.24,30.04,9,2,12,0.00
2013-12-31,70,62,57,58,56,53,99,83,60,30.35,30.21,8,2,13,0.00
2014-1-1,64,61,58,64,60,56,99,98,86,30.29,30.10,7,2,14,0.12
2014-1-2,81,69,62,78,68,61,99,97,78,30.11,29.86,23,5,36,0.48